[[{"header":{"parameterUnit":"m.s-1","parameterCategory":1,"la1":30.2991,"la2":30.254,"lo1":-89.0895,"lo2":-89.0444,"dy":0.0017,"dx":0.0017,"nx":28,"ny":28,"refTime":"2025-07-03T09:00:00:Z","depth":0,"parameterNumber":2,"parameterNumberName":"U-component_of_WINDS"},"data":[0,0,0,0,0,0,0,0,0,0,0,0,0,0,0,0,0,0,0,0,0,0,0,0,0,0,0,0,0,0,0,0,0,0,0,0,0,0,0,0,0,0,0,0,0,0,0,0,0,0,0,0,0,0,0,0,0,0,0.3778,0.3778,0,0.3774,0.3774,0.3774,0.381,0.3811,0.3812,0.3813,0.3805,0.3804,0.3803,0,0,0,0,0,0,0,0,0,0,0,0,0,0.3815,0.3815,0.3778,0.3778,0.3778,0.3774,0.3774,0.3774,0.3809,0.3811,0.3812,0.3813,0.3806,0.3804,0.3803,0,0,0,0,0,0,0,0,0,0,0,0,0,0.3804,0.3814,0.3778,0.3796,0.3797,0.3774,0.3774,0.3774,0.3809,0.3811,0.3812,0.3814,0.3806,0.3804,0.3803,0.3762,0,0,0.3798,0.3797,0,0,0,0,0,0,0,0,0.3805,0.3803,0.3793,0.3794,0.3796,0.3794,0.3785,0.377,0.3809,0.3804,0.3813,0.3814,0.38,0.3799,0.3795,0.3762,0.3762,0.3797,0.3796,0.3796,0.3795,0,0,0,0,0,0,0,0.3805,0.3803,0.3777,0.3793,0.3795,0.3803,0.3803,0.3782,0.3794,0.3805,0.3808,0.3807,0.3801,0.3796,0.3795,0.3762,0.3798,0.3796,0.3795,0.3794,0.3695,0.3694,0,0,0,0,0,0,0.3804,0.3803,0.3777,0.3777,0.3804,0.3801,0.3801,0.3793,0.3794,0.3796,0.3805,0.3808,0.3799,0.3797,0.3795,0.3747,0.3796,0.3794,0.3793,0.3697,0.3695,0.3693,0,0,0,0,0,0,0.3805,0.3801,0.3777,0.3791,0.3788,0.3799,0.379,0.3792,0.3787,0.3795,0.3797,0.3798,0.38,0.3797,0.377,0.3747,0.3793,0.3792,0.3699,0.3696,0.3694,0.3651,0,0,0,0,0,0,0.3806,0.3801,0.3786,0.379,0.3787,0.3753,0.3788,0.3791,0.3785,0.3789,0.3789,0.379,0.3801,0.3773,0.3769,0.3746,0.3791,0.3701,0.3698,0.3695,0.3654,0.3647,0.3641,0,0,0,0,0,0.3807,0.3774,0.3786,0.3782,0.3769,0.3751,0.375,0.3764,0.3783,0.3767,0.3772,0.379,0.3751,0.377,0.3765,0.3741,0.3702,0.3699,0.3695,0.3657,0.3649,0.3641,0,0,0,0,0,0,0.3766,0.3775,0.3788,0.3755,0.3752,0.3758,0.3738,0.3754,0.3745,0.3749,0.3766,0.3765,0.3735,0.3736,0.3757,0.3703,0.373,0.3725,0.3703,0.3695,0.3688,0.3687,0.3789,0,0,0,0,0,0.3753,0.3739,0.3747,0.3718,0.3716,0.3728,0.372,0.3732,0.3729,0.3728,0.3731,0.3727,0.3714,0.3705,0.3693,0.3656,0.3656,0.3637,0.3631,0.3625,0.362,0.36,0.3592,0.3681,0.3681,0.3681,0,0,0.3726,0.373,0.3719,0.371,0.3709,0.3693,0.3726,0.3708,0.3696,0.3725,0.3699,0.3702,0.3699,0.3666,0.3652,0.3666,0.3596,0.3621,0.3616,0.3614,0.3595,0.3587,0.3579,0.3679,0.3679,0.368,0,0,0.3669,0.3671,0.3646,0.3645,0.3644,0.3652,0.3647,0.365,0.3652,0.3628,0.3649,0.3635,0.3612,0.3609,0.3605,0.3548,0.3564,0.3544,0.3509,0.3489,0.3482,0.3475,0.3454,0.3446,0.354,0.3539,0.3539,0,0.3636,0.3613,0.3631,0.3612,0.3606,0.3633,0.3608,0.3606,0.3601,0.3596,0.3612,0.3585,0.3585,0.3552,0.3538,0.3534,0.3527,0.3543,0.3481,0.3475,0.347,0.3449,0.3441,0.3537,0.3537,0.3537,0.3538,0,0.3571,0.3556,0.3536,0.3531,0.3524,0.3502,0.3516,0.3506,0.3519,0.3525,0.3499,0.3501,0.349,0.3483,0.3495,0.3452,0.346,0.3479,0.3506,0.3458,0.3439,0.3432,0.3533,0.3534,0.3535,0.3536,0,0,0.3486,0.3493,0.3485,0.3483,0.3485,0.3473,0.3452,0.3442,0.3433,0.343,0.3411,0.3393,0.341,0.3405,0.3416,0.3399,0.3353,0.342,0.342,0.3406,0.3305,0.3289,0.328,0.3365,0.3363,0.3362,0.3304,0,0.3429,0.3394,0.341,0.3372,0.3358,0.3384,0.3366,0.3364,0.337,0.3358,0.3365,0.335,0.3375,0.3372,0.3357,0.3362,0.3333,0.3367,0.3346,0.3345,0.3344,0.327,0.3254,0.3199,0.3297,0.3296,0.3295,0,0.3357,0.3351,0.3312,0.3317,0.3312,0.3295,0.3288,0.3276,0.3276,0.3281,0.3276,0.3292,0.3271,0.3301,0.3272,0.3294,0.3288,0.3289,0.3287,0.3284,0.3316,0.3263,0.3182,0.3173,0.3284,0.3285,0.3286,0,0.3296,0.3279,0.3254,0.3252,0.3257,0.3244,0.3246,0.3247,0.324,0.3234,0.323,0.3221,0.3215,0.3208,0.3221,0.3241,0.319,0.322,0.3192,0.3192,0.3178,0.3178,0.3093,0.3177,0.3177,0.3178,0.3178,0,0.323,0.3204,0.3226,0.321,0.3183,0.3202,0.3175,0.3179,0.318,0.3165,0.3188,0.3173,0.3192,0.3179,0.3189,0.3163,0.3161,0.3164,0.3166,0.3161,0.316,0.3154,0.3158,0.3175,0.3176,0.3176,0.3177,0,0.3156,0.317,0.3144,0.3152,0.3153,0.3132,0.3139,0.3124,0.3133,0.3114,0.311,0.3123,0.3109,0.3122,0.3108,0.3115,0.308,0.3089,0.308,0.3082,0.3052,0.3054,0.2959,0.2946,0.304,0.304,0.3039,0,0.3111,0.3093,0.3099,0.3091,0.3092,0.3079,0.3072,0.3091,0.3083,0.3082,0.3067,0.3056,0.3047,0.3023,0.3031,0.3021,0.3028,0.2996,0.3027,0.3021,0.3026,0.3026,0.3023,0.2988,0.2987,0.2986,0.2986,0,0.303,0.3038,0.3029,0.3022,0.3014,0.3009,0.3006,0.2998,0.3017,0.3008,0.2994,0.2988,0.2975,0.2962,0.2955,0.2956,0.2973,0.2976,0.2969,0.2961,0.2956,0.2957,0.306,0.2978,0.2978,0.2979,0.2979,0.298,0.2968,0.2953,0.2955,0.2944,0.2944,0.2941,0.2927,0.2935,0.2924,0.2915,0.2928,0.2911,0.2911,0.2903,0.2902,0.2889,0.2902,0.2892,0.2889,0.2886,0.2881,0.2961,0.2888,0.2888,0.2888,0.2888,0.2889,0,0.2887,0.289,0.288,0.2875,0.2866,0.2886,0.2884,0.2874,0.2859,0.2859,0.2851,0.2835,0.2824,0.2831,0.2821,0.2809,0.2817,0.2806,0.2805,0.2805,0.287,0.2876,0.2799,0.2799,0.2799,0.28,0.28,0.28,0.2843,0.2818,0.2826,0.2802,0.2805,0.2789,0.2786,0.2783,0.2783,0.2765,0.2756,0.2762,0.2764,0.2755,0.2745,0.2748,0.2742,0.2727,0.2732,0.2792,0.2801,0.2809,0.2815,0.2727,0.2726,0.2669,0.2668,0.2668]},{"header":{"parameterUnit":"m.s-1","parameterCategory":1,"la1":30.2991,"la2":30.254,"lo1":-89.0895,"lo2":-89.0444,"dy":0.0017,"dx":0.0017,"nx":28,"ny":28,"refTime":"2025-07-03T09:00:00:Z","depth":0,"parameterNumber":3,"parameterNumberName":"V-component_of_WINDS"},"data":[0,0,0,0,0,0,0,0,0,0,0,0,0,0,0,0,0,0,0,0,0,0,0,0,0,0,0,0,0,0,0,0,0,0,0,0,0,0,0,0,0,0,0,0,0,0,0,0,0,0,0,0,0,0,0,0,0,0,-3.0644,-3.0645,0,-3.0695,-3.0696,-3.0697,-3.0655,-3.0654,-3.0652,-3.065,-3.07,-3.0703,-3.0706,0,0,0,0,0,0,0,0,0,0,0,0,0,-3.0507,-3.051,-3.0644,-3.0645,-3.0645,-3.0695,-3.0696,-3.0697,-3.0656,-3.0654,-3.0652,-3.065,-3.0699,-3.0703,-3.0706,0,0,0,0,0,0,0,0,0,0,0,0,0,-3.0564,-3.0511,-3.0644,-3.0631,-3.063,-3.0695,-3.0696,-3.0697,-3.0656,-3.0654,-3.0651,-3.0649,-3.0698,-3.0702,-3.0707,-3.0786,0,0,-3.072,-3.0722,0,0,0,0,0,0,0,0,-3.056,-3.0569,-3.0632,-3.0632,-3.0631,-3.0666,-3.0666,-3.0727,-3.0657,-3.0646,-3.065,-3.0647,-3.0691,-3.0696,-3.0711,-3.0789,-3.0791,-3.0721,-3.0723,-3.0725,-3.0727,0,0,0,0,0,0,0,-3.0557,-3.0566,-3.0664,-3.0633,-3.0633,-3.0622,-3.0627,-3.0677,-3.0683,-3.0647,-3.0644,-3.0651,-3.069,-3.0707,-3.0712,-3.0792,-3.0721,-3.0725,-3.0727,-3.0729,-3.0936,-3.0939,0,0,0,0,0,0,-3.0554,-3.0563,-3.0663,-3.0666,-3.0589,-3.0626,-3.0632,-3.0658,-3.0682,-3.0683,-3.0653,-3.0649,-3.0701,-3.0707,-3.0714,-3.0808,-3.0725,-3.0729,-3.0732,-3.0934,-3.0937,-3.094,0,0,0,0,0,0,-3.0552,-3.0564,-3.0661,-3.0614,-3.0625,-3.0631,-3.0661,-3.066,-3.0677,-3.0687,-3.0687,-3.067,-3.0699,-3.0707,-3.0769,-3.0809,-3.0731,-3.0735,-3.093,-3.0935,-3.0939,-3.0998,0,0,0,0,0,0,-3.0548,-3.0563,-3.0594,-3.0615,-3.0628,-3.0716,-3.0663,-3.0663,-3.0685,-3.068,-3.0702,-3.0703,-3.0697,-3.0762,-3.0773,-3.0814,-3.0739,-3.0927,-3.0932,-3.0937,-3.0992,-3.1004,-3.1013,0,0,0,0,0,-3.0543,-3.0608,-3.0596,-3.0608,-3.0667,-3.0718,-3.0726,-3.0719,-3.0688,-3.0719,-3.0725,-3.0702,-3.0803,-3.0769,-3.0781,-3.0823,-3.0924,-3.0931,-3.0937,-3.0987,-3.1001,-3.1013,0,0,0,0,0,0,-3.0591,-3.061,-3.0597,-3.0671,-3.0693,-3.0711,-3.075,-3.0733,-3.0764,-3.0758,-3.0747,-3.0752,-3.0817,-3.0826,-3.0788,-3.0901,-3.0859,-3.0868,-3.0893,-3.0906,-3.0917,-3.0913,-3.0743,0,0,0,0,0,-3.061,-3.0651,-3.0666,-3.0729,-3.0741,-3.0744,-3.0766,-3.0759,-3.0781,-3.079,-3.08,-3.0822,-3.0859,-3.0883,-3.0917,-3.0993,-3.0997,-3.1028,-3.1039,-3.1048,-3.1055,-3.1096,-3.111,-3.0961,-3.0961,-3.0961,0,0,-3.065,-3.0666,-3.0692,-3.0739,-3.0756,-3.0797,-3.0752,-3.0798,-3.0829,-3.0797,-3.0855,-3.0864,-3.0887,-3.0957,-3.0988,-3.0966,-3.1097,-3.1056,-3.1063,-3.1066,-3.1104,-3.1118,-3.1131,-3.0966,-3.0965,-3.0964,0,0,-3.0744,-3.076,-3.0815,-3.0832,-3.0858,-3.086,-3.0873,-3.0894,-3.0898,-3.0957,-3.0934,-3.097,-3.1033,-3.1051,-3.1068,-3.1169,-3.1149,-3.118,-3.1235,-3.1274,-3.1286,-3.1296,-3.1332,-3.1345,-3.1188,-3.1188,-3.1188,0,-3.0789,-3.0852,-3.0845,-3.0893,-3.0914,-3.0888,-3.0942,-3.096,-3.0995,-3.101,-3.0986,-3.1065,-3.1079,-3.1151,-3.1176,-3.1191,-3.1205,-3.1177,-3.1285,-3.1295,-3.1305,-3.1339,-3.1352,-3.1192,-3.1191,-3.1191,-3.119,0,-3.0907,-3.0951,-3.0992,-3.1028,-3.1054,-3.1105,-3.1104,-3.1131,-3.1121,-3.1125,-3.1185,-3.1201,-3.1238,-3.1254,-3.1245,-3.1326,-3.1312,-3.1287,-3.1243,-3.1323,-3.1354,-3.1367,-3.1197,-3.1195,-3.1194,-3.1193,0,0,-3.1032,-3.1064,-3.1079,-3.1095,-3.1121,-3.1155,-3.1204,-3.1241,-3.1264,-3.1289,-3.133,-3.1384,-3.1361,-3.1381,-3.1374,-3.1408,-3.1487,-3.1379,-3.1379,-3.1398,-3.1576,-3.1594,-3.161,-3.1474,-3.1476,-3.1478,-3.1574,0,-3.1127,-3.1215,-3.1209,-3.1291,-3.1331,-3.1307,-3.135,-3.1371,-3.1375,-3.1409,-3.1414,-3.1452,-3.1419,-3.1431,-3.1464,-3.147,-3.1522,-3.1463,-3.1511,-3.1512,-3.1505,-3.1626,-3.1646,-3.1735,-3.1586,-3.1588,-3.159,0,-3.1249,-3.128,-3.1366,-3.1387,-3.1404,-3.1443,-3.1476,-3.1509,-3.1531,-3.1532,-3.1555,-3.1541,-3.159,-3.1546,-3.1613,-3.1573,-3.1592,-3.1598,-3.1601,-3.1605,-3.1556,-3.1633,-3.1764,-3.1777,-3.1609,-3.1607,-3.1606,0,-3.1332,-3.1394,-3.1454,-3.1468,-3.1494,-3.1522,-3.1534,-3.1554,-3.1576,-3.1605,-3.1619,-3.1653,-3.1671,-3.1697,-3.1693,-3.1661,-3.1761,-3.1717,-3.1762,-3.1763,-3.1784,-3.1783,-3.192,-3.1797,-3.1797,-3.1797,-3.1797,0,-3.1438,-3.1491,-3.1491,-3.1528,-3.1587,-3.1579,-3.1638,-3.1646,-3.1664,-3.1701,-3.1682,-3.1717,-3.171,-3.1744,-3.1741,-3.1797,-3.1805,-3.1807,-3.1805,-3.1808,-3.1808,-3.182,-3.1814,-3.18,-3.18,-3.1799,-3.1798,0,-3.1539,-3.1541,-3.1605,-3.1624,-3.163,-3.1673,-3.1689,-3.1723,-3.1726,-3.1773,-3.1784,-3.1789,-3.1828,-3.1827,-3.1872,-3.187,-3.1938,-3.1929,-3.1931,-3.1929,-3.1974,-3.197,-3.2124,-3.2143,-3.2009,-3.201,-3.2011,0,-3.1607,-3.1648,-3.1672,-3.1696,-3.171,-3.1749,-3.1772,-3.1766,-3.179,-3.1819,-3.185,-3.1888,-3.1918,-3.1983,-3.1989,-3.2023,-3.2015,-3.2067,-3.202,-3.2022,-3.2015,-3.2013,-3.2017,-3.2076,-3.2077,-3.2078,-3.2079,0,-3.1726,-3.1726,-3.176,-3.1795,-3.1824,-3.1851,-3.1875,-3.1896,-3.1892,-3.1921,-3.1962,-3.1986,-3.2032,-3.2069,-3.2102,-3.2113,-3.2096,-3.2094,-3.2106,-3.211,-3.2109,-3.211,-3.1955,-3.209,-3.2089,-3.2089,-3.2088,-3.2087,-3.1813,-3.1848,-3.187,-3.1909,-3.1928,-3.1951,-3.1984,-3.1992,-3.2026,-3.2064,-3.2058,-3.2104,-3.2125,-3.2167,-3.2181,-3.2216,-3.2198,-3.2216,-3.222,-3.2224,-3.2229,-3.2104,-3.2222,-3.2222,-3.2221,-3.2221,-3.2221,0,-3.1931,-3.1944,-3.198,-3.2016,-3.2047,-3.2029,-3.2055,-3.2082,-3.2122,-3.2144,-3.2174,-3.2221,-3.2258,-3.2268,-3.2303,-3.2329,-3.2321,-3.2338,-3.2336,-3.2338,-3.2244,-3.223,-3.2343,-3.2343,-3.2343,-3.2343,-3.2343,-3.2343,-3.1996,-3.2054,-3.2056,-3.2123,-3.2135,-3.2181,-3.2198,-3.2219,-3.2236,-3.229,-3.232,-3.2327,-3.2343,-3.238,-3.2412,-3.2414,-3.2427,-3.2447,-3.2446,-3.2357,-3.2345,-3.2333,-3.232,-3.245,-3.245,-3.2537,-3.2538,-3.2538]}]]